Estación municipal de St. Hilari Sacalm (La Selva, Guilleries)

Consulta los datos en tiempo real de la estación municipal de St. Hilari Sacalm





Hora UTC 01:45
Temperatura 8.2 ºC
Humedad 93.8 %
Presión 1011.9 hPa
Pluja 0.0 mm
Velocidad viento 0.0 km/h
Dirección viento NNE
Radiación solar 0.1 W/m²

Webcam

Datos diarios 2026-05-05



Hora UTC (invierno +1h; verano +2h)
Temperatura (ºC) Humedad (%) Presión (hPa) Velocidad viento (km/h) Precipitación (mm) Radiación solar (W/m²)
Hora UTC Aire Humedad Presión Vel. Dir. Vel. Max Dir. Intent. máx 5 min. Rad. Sol.
00:05 9.4 90.1 1012.1 1.9 W 1.9 W 0.0 0.1
00:10 9.2 90.2 1012.1 1.0 NW 8.8 WNW 0.0 0.1
00:15 9.2 90.9 1012.1 4.4 NW 16.9 WNW 0.0 0.1
00:20 9.2 91.3 1012.1 1.7 WSW 11.5 NW 0.0 0.1
00:25 9.2 91.6 1012.1 5.6 W 19.6 WNW 0.0 0.1
00:30 9.1 92.0 1012.1 2.1 W 11.5 W 0.0 0.1
00:35 9.1 92.2 1012.1 2.5 WSW 16.9 WNW 0.0 0.1
00:40 9.0 92.3 1012.1 2.5 WSW 11.5 SW 0.0 0.1
00:45 9.0 92.7 1012.0 1.2 W 11.5 W 0.0 0.1
00:50 8.9 92.9 1012.0 0.9 WSW 14.2 SW 0.0 0.1
00:55 8.9 92.9 1012.0 0.1 W 6.1 W 0.0 0.1
01:00 8.8 92.9 1012.0 0.9 NNW 8.8 NNW 0.0 0.1
01:05 8.5 92.8 1011.9 1.1 NNW 11.5 WNW 0.0 0.1
01:10 8.5 93.5 1011.8 0.3 NW 8.8 NW 0.0 0.1
01:15 8.5 93.5 1011.8 0.0 NNE 0.0 NE 0.0 0.1
01:20 8.4 93.5 1011.9 0.0 NNE 0.0 W 0.0 0.1
01:25 8.2 93.4 1011.9 0.0 NNE 0.0 W 0.0 0.1
01:30 8.2 93.8 1012.0 0.0 NNE 0.0 SW 0.0 0.1
01:35 8.1 93.8 1012.0 0.0 NNE 0.0 SW 0.0 0.1
01:40 8.2 94.1 1012.0 0.0 NNE 0.0 NW 0.0 0.1
01:45 8.2 93.8 1011.9 0.0 NNE 0.0 WNW 0.0 0.1
Máxima 9.4 94.1 1012.1 5.6 W 19.6 WNW 0.0 0.1
Mínima 8.1 90.1 1011.8
Total 0.0